TimePDT,TemperatureF,Dew PointF,Humidity,Sea Level PressureIn,VisibilityMPH,Wind Direction,Wind SpeedMPH,Gust SpeedMPH,PrecipitationIn,Events,Conditions,WindDirDegrees,DateUTC
12:53 AM,37.9,33.1,83,30.38,10.0,Calm,Calm,-,N/A,,Partly Cloudy,0,2013-03-22 07:53:00
1:53 AM,37.9,34.0,86,30.37,10.0,Calm,Calm,-,N/A,,Overcast,0,2013-03-22 08:53:00
2:01 AM,37.4,33.8,87,30.36,10.0,Calm,Calm,-,N/A,,Overcast,0,2013-03-22 09:01:00
2:22 AM,37.4,33.8,87,30.36,10.0,Calm,Calm,-,N/A,,Overcast,0,2013-03-22 09:22:00
2:53 AM,37.0,34.0,89,30.37,10.0,Calm,Calm,-,N/A,,Mostly Cloudy,0,2013-03-22 09:53:00
3:53 AM,37.9,35.1,89,30.37,10.0,Calm,Calm,-,N/A,,Overcast,0,2013-03-22 10:53:00
4:53 AM,37.9,35.1,89,30.36,10.0,Calm,Calm,-,0.00,,Overcast,0,2013-03-22 11:53:00
5:11 AM,37.4,35.6,93,30.35,10.0,Calm,Calm,-,N/A,,Overcast,0,2013-03-22 12:11:00
5:53 AM,37.0,35.1,93,30.36,10.0,Calm,Calm,-,N/A,,Mostly Cloudy,0,2013-03-22 12:53:00
6:18 AM,37.4,35.6,93,30.35,10.0,Calm,Calm,-,N/A,,Mostly Cloudy,0,2013-03-22 13:18:00
6:39 AM,37.4,35.6,93,30.35,10.0,Calm,Calm,-,N/A,,Overcast,0,2013-03-22 13:39:00
6:53 AM,37.9,35.1,89,30.37,10.0,Calm,Calm,-,N/A,,Overcast,0,2013-03-22 13:53:00
7:53 AM,37.0,35.1,93,30.38,10.0,Calm,Calm,-,0.00,,Mostly Cloudy,0,2013-03-22 14:53:00
8:53 AM,39.0,35.1,86,30.38,10.0,Calm,Calm,-,N/A,,Mostly Cloudy,0,2013-03-22 15:53:00
9:30 AM,41.0,35.6,81,30.37,10.0,SW,3.5,-,N/A,,Overcast,220,2013-03-22 16:30:00
9:53 AM,41.0,34.0,76,30.39,10.0,WSW,4.6,-,N/A,,Overcast,250,2013-03-22 16:53:00
10:13 AM,41.0,33.8,76,30.38,10.0,WNW,3.5,-,N/A,,Overcast,290,2013-03-22 17:13:00
10:53 AM,43.0,33.1,68,30.39,10.0,Variable,3.5,-,N/A,,Overcast,0,2013-03-22 17:53:00
11:53 AM,45.0,30.0,56,30.39,10.0,North,10.4,-,0.00,Rain,Light Rain,360,2013-03-22 18:53:00
12:53 PM,45.0,28.9,53,30.39,10.0,North,12.7,-,0.00,,Overcast,10,2013-03-22 19:53:00
1:53 PM,48.0,28.9,48,30.37,10.0,North,4.6,-,N/A,,Scattered Clouds,360,2013-03-22 20:53:00
2:53 PM,48.9,30.9,50,30.35,10.0,WSW,8.1,-,N/A,,Mostly Cloudy,240,2013-03-22 21:53:00
3:53 PM,48.0,33.1,56,30.35,10.0,Variable,6.9,-,N/A,,Scattered Clouds,0,2013-03-22 22:53:00
4:53 PM,48.0,28.9,48,30.35,10.0,Variable,5.8,-,N/A,,Partly Cloudy,0,2013-03-22 23:53:00
5:53 PM,46.0,33.1,61,30.35,10.0,NW,10.4,-,N/A,,Mostly Cloudy,320,2013-03-23 00:53:00
6:53 PM,45.0,32.0,60,30.36,10.0,NNW,6.9,-,N/A,,Mostly Cloudy,330,2013-03-23 01:53:00
7:53 PM,44.1,32.0,63,30.37,10.0,North,3.5,-,N/A,,Scattered Clouds,350,2013-03-23 02:53:00
8:53 PM,42.1,33.1,70,30.38,10.0,North,3.5,-,N/A,,Clear,10,2013-03-23 03:53:00
9:53 PM,42.1,35.1,76,30.38,10.0,North,5.8,-,N/A,,Overcast,360,2013-03-23 04:53:00
10:53 PM,41.0,35.1,79,30.39,10.0,NNE,4.6,-,N/A,,Overcast,20,2013-03-23 05:53:00
11:53 PM,41.0,35.1,79,30.39,10.0,Calm,Calm,-,N/A,,Overcast,0,2013-03-23 06:53:00